This demonstration page uses our WeatherBlox Daily Observations layout. Learn more.

Left ArrowRight Arrow

Hourly Observations for November 11, 2020

Temp ( °F °C ) Dew Point ( °F °C ) Humidity (%) Winds ( mph kmh ) Pressure ( in mb ) Visibility ( mi km ) Precip ( " mm )
12:56 am 00:56 Clear 30 -1.1 24 -4.4 79 79 W 9 15 29.99 1016 10 16 0.00 0.00
1:56 am 01:56 Clear 31 -0.6 25 -3.9 79 79 W 9 15 29.99 1016 10 16 0.00 0.00
2:56 am 02:56 Clear 31 -0.6 24 -4.4 76 76 W 7 11 30.00 1016 10 16 0.00 0.00
3:56 am 03:56 Partly Cloudy 30 -1.1 23 -5 75 75 WSW 6 9 30.00 1016 10 16 0.00 0.00
4:56 am 04:56 Partly Cloudy 30 -1.1 24 -4.4 79 79 WSW 13 20 30.02 1017 10 16 0.00 0.00
5:56 am 05:56 Mostly Cloudy 30 -1.1 24 -4.4 79 79 WSW 5 7 30.03 1017 10 16 0.00 0.00
6:56 am 06:56 Clear 29 -1.7 24 -4.4 82 82 WSW 7 11 30.04 1017 10 16 0.00 0.00
7:56 am 07:56 Mostly Sunny 30 -1.1 25 -3.9 82 82 SW 10 17 30.06 1018 10 16 0.00 0.00
8:56 am 08:56 Sunny 35 1.7 26 -3.3 70 70 WSW 10 17 30.08 1019 10 16 0.00 0.00
9:56 am 09:56 Sunny 39 3.9 26 -3.3 60 60 WSW 15 24 30.07 1018 10 16 0.00 0.00
10:56 am 10:56 Sunny 45 7.2 29 -1.7 54 54 WSW 13 20 30.07 1018 10 16 0.00 0.00
11:56 am 11:56 Sunny 49 9.4 29 -1.7 46 46 WSW 14 22 30.06 1018 10 16 0.00 0.00
12:56 pm 12:56 Sunny 51 10.6 28 -2.2 41 41 WSW 13 20 30.03 1017 10 16 0.00 0.00
1:56 pm 13:56 Sunny 54 12.2 23 -5 30 30 WSW 16 26 30.00 1016 10 16 0.00 0.00
2:56 pm 14:56 Sunny 54 12.2 21 -6.1 28 28 W 10 17 29.99 1016 10 16 0.00 0.00
3:56 pm 15:56 Sunny 54 12.2 20 -6.7 26 26 WSW 7 11 29.98 1015 10 16 0.00 0.00
4:56 pm 16:56 Sunny 48 8.9 28 -2.2 46 46 S 6 9 29.99 1016 10 16 0.00 0.00
5:56 pm 17:56 Clear 41 5 26 -3.3 55 55 S 8 13 30.01 1016 10 16 0.00 0.00
6:56 pm 18:56 Clear 39 3.9 26 -3.3 60 60 SSE 7 11 30.03 1017 10 16 0.00 0.00
7:56 pm 19:56 Clear 37 2.8 25 -3.9 62 62 S 9 15 30.03 1017 10 16 0.00 0.00
8:56 pm 20:56 Clear 35 1.7 24 -4.4 64 64 S 10 17 30.03 1017 10 16 0.00 0.00
9:56 pm 21:56 Clear 34 1.1 25 -3.9 70 70 S 9 15 30.03 1017 10 16 0.00 0.00
10:56 pm 22:56 Clear 31 -0.6 25 -3.9 79 79 S 9 15 30.03 1017 10 16 0.00 0.00
11:56 pm 23:56 Clear 32 0 26 -3.3 79 79 S 10 17 30.01 1016 10 16 0.00 0.00

Powered by AerisWeather